Flag for Germany Weather past 2 weeks in Lehrte, Lower Saxony, Germany

Now
49 °F

Partly sunny.


Feels Like: 44 °F
Forecast: 37 / 44 °F
Wind: 14 mph from West

Location: Hannover

Current Time: Mar 31, 2015 at 10:28:53 AM

Latest Report: Mar 31, 2015 at 10:00 AM


Visibility: 19 mi

Pressure: 29.09 "Hg

Humidity: 75%

Dew point: 41 °F

Location of LehrteLocation

Historic Weather in Lehrte — Graph

°F

Lehrte temperature yesterday

Maximum temperature yesterday: 47 °F (at 2:00 PM)
Minimum temperature yesterday: 40 °F (at 7:00 AM)
Average temperature yesterday: 42 °F

Past Weeks' High & Low Weather Summary

 TemperatureHumidityPressure
High60 °F (Mar 25, 5:00 PM)99% (Mar 21, 12:00 AM)30.41 "Hg (Mar 21, 12:00 AM)
Low28 °F (Mar 20, 6:00 AM)37% (Mar 19, 4:00 PM)29.03 "Hg (Mar 31, 8:00 AM)
Average43 °F76%29.97 "Hg
* Reported Mar 16 8:00 AM — Mar 31 9:00 AM, Lehrte, Weather by CustomWeather, © 2015

Note: Actual official high and low records may vary slightly from our data, if they occured in-between our weather recording intervals... More about our weather records

Advertising

Lehrte weather history for previous 24 hours

 ConditionsComfort  
Time TempWeatherWind HumidityBarometerVisibility
9:00 AM
Tue, Mar 31
48 °FOvercast.13 mph79%29.06 "Hg25 mi
8:00 AM47 °FLight rain. Low clouds.12 mph90%29.03 "Hg8 mi
7:00 AM40 °FLight rain. Low clouds.8 mph96%29.09 "Hg4 mi
6:00 AM37 °FLight rain. Low clouds.9 mph95%29.18 "Hg6 mi
4:00 AM36 °FLight rain. Low clouds.8 mph92%29.38 "Hg7 mi
3:00 AM39 °FChilly.9 mph81%29.50 "Hg0 mi
2:00 AM41 °FOvercast.6 mph64%29.58 "Hg25 mi
1:00 AM41 °FOvercast.5 mph66%29.63 "Hg22 mi
12:00 AM40 °FOvercast.6 mph68%29.69 "Hg22 mi
10:00 PM
Mon, Mar 30
41 °FPassing clouds.7 mph67%29.73 "Hg22 mi
9:00 PM41 °FPassing clouds.7 mph65%29.72 "Hg25 mi
8:00 PM42 °FPassing clouds.9 mph67%29.72 "Hg25 mi
7:00 PM43 °FPartly sunny.9 mph71%29.68 "Hg25 mi
6:00 PM42 °FPartly sunny.13 mph76%29.65 "Hg22 mi
4:00 PM41 °FPartly sunny.10 mph74%29.58 "Hg31 mi
3:00 PM45 °FPartly sunny.9 mph66%29.53 "Hg16 mi
2:00 PM47 °FScattered clouds.12 mph67%29.50 "Hg25 mi
1:00 PM43 °FPartly sunny.12 mph75%29.44 "Hg28 mi
12:00 PM42 °FPartly sunny.14 mph76%29.41 "Hg8 mi
10:00 AM43 °FPartly sunny.12 mph67%29.35 "Hg25 mi
Weather by CustomWeather, © 2015

See weather overviewHow to use our weather pages